Lincoln, NE

8:41 PM CST on December 13, 2019 (GMT -0600)
Lincoln Municipal

Weather History for KLNK - November, 2019

Change the Weather History Date:

Tuesday, November 19, 2019

  Actual Average Record
Temperature  
Mean Temperature 48 °F 37 °F  
Max Temperature 65 °F 48 °F 78 °F (2007)
Min Temperature 31 °F 26 °F 4 °F (1985)
Degree Days  
Heating Degree Days 17 28  
Month to date heating degree days 520 439  
Since 1 July heating degree days 1031 918  
Cooling Degree Days 0 0  
Month to date cooling degree days 0 0  
Year to date cooling degree days 1332 1173  
Moisture  
Dew Point 32 °F    
Average Humidity 61    
Maximum Humidity 89    
Minimum Humidity 32    
Precipitation  
Precipitation 0.00 in 0.04 in 2.06 in (1953)
Month to date precipitation 0.02 0.97  
Year to date precipitation 32.77 27.54  
Snow  
Snow 0.00 in 0.10 in 3.60 in (1985)
Month to date snowfall 0.5 1.0  
Since 1 July snowfall 1.2 1.7  
Since 1 September snowfall 1.2 1.7  
Snow Depth 0.00 in    
Sea Level Pressure  
Sea Level Pressure 29.90 in    
Wind  
Wind Speed 4 mph (South)    
Max Wind Speed 9 mph    
Max Gust Speed 13 mph    
Visibility 10 miles    
Events      
T = Trace of Precipitation, MM = Missing Value Source: NWS Daily Summary

Daily Weather History Graph

Daily Weather History Graph

Search for Another Location

Airport or City:

Astronomy

Nov. 19, 2019 Rise Set
Actual Time 7:18 AM CST 5:05 PM CST
Civil Twilight 6:48 AM CST 5:35 PM CST
Nautical Twilight 6:15 AM CST 6:08 PM CST
Astronomical Twilight 5:42 AM CST 6:41 PM CST
Moon No Moon Rise 1:29 PM CST (11/19)
Length of Visible Light 10h 46m
Length of Day
9h 47m
Waning Gibbous, 51% of the Moon is Illuminated
Nov 19
Waning Gibbous
Nov 19
Last Quarter
Nov 26
New
Dec 4
First Quarter
Dec 11
Full

Hourly Weather History & Observations

Time (CST) Temp. Windchill Dew Point Humidity Pressure Visibility Wind Dir Wind Speed Gust Speed Precip Events Conditions
12:54 AM 37.9 °F 34.4 °F 33.1 °F 83% 29.86 in 10.0 mi NNW 4.6 mph - N/A   Clear
1:54 AM 37.9 °F 34.4 °F 33.1 °F 83% 29.84 in 10.0 mi NNW 4.6 mph - N/A   Clear
2:54 AM 34.0 °F 31.0 °F 30.0 °F 85% 29.85 in 10.0 mi West 3.5 mph - N/A   Clear
3:54 AM 36.0 °F - 30.9 °F 82% 29.86 in 10.0 mi Calm Calm - N/A   Clear
5:54 AM 37.9 °F 35.5 °F 32.0 °F 79% 29.90 in 10.0 mi WNW 3.5 mph - N/A   Clear
6:54 AM 32.0 °F 28.7 °F 28.0 °F 85% 29.92 in 10.0 mi NW 3.5 mph - N/A   Clear
8:54 AM 39.9 °F - 33.1 °F 77% 29.95 in 10.0 mi Calm Calm - N/A   Clear
9:54 AM 45.0 °F 43.5 °F 35.1 °F 68% 29.96 in 10.0 mi South 3.5 mph - N/A   Clear
10:54 AM 52.0 °F - 36.0 °F 54% 29.95 in 10.0 mi Variable 3.5 mph - N/A   Clear
11:54 AM 59.0 °F - 35.1 °F 41% 29.92 in 10.0 mi SW 8.1 mph - N/A   Clear
12:54 PM 61.0 °F - 34.0 °F 36% 29.90 in 10.0 mi Variable 3.5 mph - N/A   Clear
1:54 PM 63.0 °F - 33.1 °F 33% 29.88 in 10.0 mi Calm Calm - N/A   Clear
2:54 PM 63.0 °F - 32.0 °F 31% 29.87 in 10.0 mi SSW 4.6 mph - N/A   Partly Cloudy
3:54 PM 63.0 °F - 33.1 °F 33% 29.87 in 10.0 mi South 6.9 mph - N/A   Clear
4:54 PM 54.0 °F - 32.0 °F 43% 29.88 in 10.0 mi SSE 6.9 mph - N/A   Scattered Clouds
5:54 PM 48.9 °F - 30.9 °F 50% 29.89 in 10.0 mi SE 3.5 mph - N/A   Clear
6:54 PM 50.0 °F - 32.0 °F 50% 29.90 in 10.0 mi ESE 3.5 mph - N/A   Clear
7:54 PM 50.0 °F - 32.0 °F 50% 29.91 in 10.0 mi ESE 3.5 mph - N/A   Clear
8:54 PM 46.0 °F - 32.0 °F 58% 29.91 in 10.0 mi Calm Calm - N/A   Clear
9:54 PM 45.0 °F - 32.0 °F 60% 29.92 in 10.0 mi Calm Calm - N/A   Clear
10:54 PM 39.9 °F 37.8 °F 30.9 °F 70% 29.91 in 10.0 mi SSE 3.5 mph - N/A   Clear
11:54 PM 45.0 °F 40.1 °F 33.1 °F 63% 29.89 in 10.0 mi SE 9.2 mph - N/A   Clear